DELTA 1 DEB

Satellite information

Favourite Embed

Satellite Type and Status

DEBRISIN ORBIT

Key statistics

Satellite DELTA 1 DEB at a glance.

Uptime

17877

Days in orbit

Revolutions

≈ 12.4

Per day

Orbit

SSO

Sun Synchronous Orbit

Inclination

102.0

Latest

Satellite identification and parameters

Extended collection of information and parameters for DELTA 1 DEB.

Object identification

Identified? True

Debris? True

Object name: DELTA 1 DEB

International designator: 1976-077DP

Object number (NORAD): 12534

Object ID (CCSDS): 12534

Country: UNITED STATES OF AMERICA (US)

Current information (Y/N): Y

RCS size: SMALL

Orbital parameters

Period: 116.405 minutes

Inclination: 102.0194 deg

SMA: 7897.227 km

Apoapsis: 1560.71 km

Periapsis: 1477.475 km

RAAN: 258.7977 deg

Eccentricy: 0.0052699

Argument of periapsis: 359.402 deg

Mean anomaly: 155.8741 deg

Mean motion: 12.37060114 rev/day

Mean motion (dot): -0.00000591 rev/day2

B* drag term: -0.0042295 1/REarth

Two-line elements (TLE)

Creation date: July 9, 2025, 2:22 a.m.

Reference frame: TEME

Reference center: EARTH

Epoch: July 8, 2025, 4:05 p.m. UTC

TLE line 0: 0 DELTA 1 DEB

TLE line 1: 1 12534U 76077DP 25189.67078623 -.00000591 00000-0 -42295-2 0 9997

TLE line 2: 2 12534 102.0194 258.7977 0052699 359.4020 155.8741 12.37060114126772

Live tracking on map

Real-time ground track for satellite DELTA 1 DEB.

In-orbit conjunctions

A list of the most updated potential collisions computed for object DELTA 1 DEB.

Target Orbit TCA Probability of collision Miss distance Type
BREEZE-KM R/B LEO 2025-04-13 05:02:23 0.0001111384 596.0 (m) ROCKET BODY

Associated space launch

Meteorological satellite using radiometric imaging

DELTA 1 DEB was lifted into orbit during the mission ‘Delta 2310 | NOAA 5’, on board a Delta 2310 space rocket.

The launch took place on July 29, 1976, 5:07 p.m. from Space Launch Complex 2W.

For more information about the launch, click the button.

Launch to space Delta 2310 | NOAA 5
Delta 2310 | NOAA 5

Agency: N/A

Status: Launch Successful

Launch date: July 29, 1976, 5:07 p.m. UTC

Rocket: Delta 2310

Launch pad: Space Launch Complex 2W

Location: Vandenberg SFB, CA, USA

...

Latest news about this satellite

There are no fresh news available about this satellite. Check back as we update our databases every day.


Newsletter sign-up

Weekly statistics, charts and insights to help you stay on top of the space industry.